TimePST,TemperatureF,Dew PointF,Humidity,Sea Level PressureIn,VisibilityMPH,Wind Direction,Wind SpeedMPH,Gust SpeedMPH,PrecipitationIn,Events,Conditions,WindDirDegrees,DateUTC
12:15 AM,42.8,19.4,39,30.23,10.0,Calm,Calm,-,N/A,,Clear,0,2013-01-04 08:15:00
12:35 AM,41.0,23.0,49,30.23,10.0,Calm,Calm,-,N/A,,Clear,0,2013-01-04 08:35:00
12:55 AM,41.0,23.0,49,30.23,10.0,Calm,Calm,-,N/A,,Clear,0,2013-01-04 08:55:00
1:35 AM,44.6,24.8,46,30.23,10.0,Calm,Calm,-,N/A,,Clear,0,2013-01-04 09:35:00
1:55 AM,42.8,19.4,39,30.23,10.0,Calm,Calm,-,N/A,,Clear,0,2013-01-04 09:55:00
2:15 AM,44.6,17.6,34,30.23,10.0,Calm,Calm,-,N/A,,Clear,0,2013-01-04 10:15:00
2:35 AM,42.8,17.6,36,30.23,10.0,Calm,Calm,-,N/A,,Clear,0,2013-01-04 10:35:00
2:55 AM,42.8,17.6,36,30.23,10.0,Calm,Calm,-,N/A,,Clear,0,2013-01-04 10:55:00
3:15 AM,42.8,23.0,46,30.23,10.0,Calm,Calm,-,N/A,,Clear,0,2013-01-04 11:15:00
3:35 AM,42.8,23.0,46,30.23,10.0,Calm,Calm,-,N/A,,Clear,0,2013-01-04 11:35:00
3:55 AM,42.8,23.0,46,30.23,10.0,Calm,Calm,-,N/A,,Clear,0,2013-01-04 11:55:00
4:15 AM,42.8,23.0,46,30.22,10.0,Calm,Calm,-,N/A,,Clear,0,2013-01-04 12:15:00
4:35 AM,42.8,23.0,46,30.22,10.0,Calm,Calm,-,N/A,,Clear,0,2013-01-04 12:35:00
4:55 AM,42.8,23.0,46,30.22,10.0,Calm,Calm,-,N/A,,Clear,0,2013-01-04 12:55:00
5:15 AM,41.0,21.2,45,30.22,10.0,Calm,Calm,-,N/A,,Clear,0,2013-01-04 13:15:00
5:35 AM,41.0,21.2,45,30.22,10.0,Calm,Calm,-,N/A,,Clear,0,2013-01-04 13:35:00
5:55 AM,41.0,23.0,49,30.22,10.0,Calm,Calm,-,N/A,,Clear,0,2013-01-04 13:55:00
6:15 AM,41.0,21.2,45,30.23,10.0,Calm,Calm,-,N/A,,Clear,0,2013-01-04 14:15:00
6:35 AM,42.8,19.4,39,30.23,10.0,Calm,Calm,-,N/A,,Clear,0,2013-01-04 14:35:00
6:55 AM,42.8,19.4,39,30.24,10.0,Calm,Calm,-,N/A,,Clear,0,2013-01-04 14:55:00
7:15 AM,41.0,19.4,42,30.24,10.0,Calm,Calm,-,N/A,,Clear,0,2013-01-04 15:15:00
7:35 AM,41.0,19.4,42,30.24,10.0,Calm,Calm,-,N/A,,Clear,0,2013-01-04 15:35:00
7:55 AM,42.8,19.4,39,30.25,10.0,Calm,Calm,-,N/A,,Clear,0,2013-01-04 15:55:00
8:15 AM,42.8,17.6,36,30.25,10.0,Calm,Calm,-,N/A,,Clear,0,2013-01-04 16:15:00
8:35 AM,44.6,19.4,37,30.25,10.0,Calm,Calm,-,N/A,,Clear,0,2013-01-04 16:35:00
8:55 AM,46.4,19.4,34,30.25,10.0,Calm,Calm,-,N/A,,Clear,0,2013-01-04 16:55:00
9:15 AM,48.2,24.8,40,30.26,10.0,Calm,Calm,-,N/A,,Clear,0,2013-01-04 17:15:00
9:35 AM,50.0,23.0,35,30.26,10.0,Calm,Calm,-,N/A,,Clear,0,2013-01-04 17:35:00
9:55 AM,50.0,21.2,32,30.26,10.0,Calm,Calm,-,N/A,,Clear,0,2013-01-04 17:55:00
10:15 AM,50.0,23.0,35,30.26,10.0,Calm,Calm,-,N/A,,Clear,0,2013-01-04 18:15:00
10:35 AM,48.2,19.4,32,30.26,10.0,WNW,5.8,-,N/A,,Clear,290,2013-01-04 18:35:00
10:55 AM,48.2,23.0,37,30.25,10.0,WNW,4.6,-,N/A,,Clear,300,2013-01-04 18:55:00
11:15 AM,48.2,24.8,40,30.25,10.0,WNW,5.8,-,N/A,,Clear,290,2013-01-04 19:15:00
11:35 AM,50.0,23.0,35,30.24,10.0,NW,4.6,-,N/A,,Clear,310,2013-01-04 19:35:00
11:55 AM,50.0,24.8,37,30.24,10.0,Calm,Calm,-,N/A,,Clear,0,2013-01-04 19:55:00
12:15 PM,50.0,24.8,37,30.23,10.0,Calm,Calm,-,N/A,,Clear,0,2013-01-04 20:15:00
12:35 PM,50.0,24.8,37,30.22,10.0,Calm,Calm,-,N/A,,Clear,0,2013-01-04 20:35:00
12:55 PM,50.0,24.8,37,30.21,10.0,Calm,Calm,-,N/A,,Clear,0,2013-01-04 20:55:00
1:15 PM,51.8,24.8,35,30.21,10.0,Calm,Calm,-,N/A,,Clear,0,2013-01-04 21:15:00
1:35 PM,53.6,23.0,30,30.20,10.0,West,4.6,-,N/A,,Clear,280,2013-01-04 21:35:00
1:55 PM,53.6,24.8,33,30.20,10.0,WSW,4.6,-,N/A,,Clear,250,2013-01-04 21:55:00
2:15 PM,53.6,26.6,35,30.19,10.0,Calm,Calm,-,N/A,,Clear,0,2013-01-04 22:15:00
2:35 PM,53.6,28.4,38,30.19,10.0,Calm,Calm,-,N/A,,Clear,0,2013-01-04 22:35:00
2:55 PM,53.6,28.4,38,30.19,10.0,SW,3.5,-,N/A,,Clear,220,2013-01-04 22:55:00
3:15 PM,53.6,30.2,41,30.19,10.0,Calm,Calm,-,N/A,,Clear,0,2013-01-04 23:15:00
3:35 PM,53.6,30.2,41,30.19,10.0,Calm,Calm,-,N/A,,Clear,0,2013-01-04 23:35:00
3:55 PM,51.8,32.0,47,30.19,10.0,Calm,Calm,-,N/A,,Clear,0,2013-01-04 23:55:00
4:15 PM,50.0,32.0,50,30.19,10.0,Calm,Calm,-,N/A,,Clear,0,2013-01-05 00:15:00
4:35 PM,48.2,32.0,54,30.19,10.0,Calm,Calm,-,N/A,,Clear,0,2013-01-05 00:35:00
4:55 PM,48.2,32.0,54,30.19,10.0,Calm,Calm,-,N/A,,Clear,0,2013-01-05 00:55:00
5:15 PM,44.6,32.0,61,30.19,10.0,Calm,Calm,-,N/A,,Clear,0,2013-01-05 01:15:00
5:35 PM,44.6,32.0,61,30.19,10.0,Calm,Calm,-,N/A,,Clear,0,2013-01-05 01:35:00
5:55 PM,42.8,32.0,66,30.19,10.0,Calm,Calm,-,N/A,,Clear,0,2013-01-05 01:55:00
6:15 PM,42.8,32.0,66,30.20,10.0,Calm,Calm,-,N/A,,Clear,0,2013-01-05 02:15:00
6:35 PM,42.8,32.0,66,30.20,10.0,ESE,4.6,-,N/A,,Clear,120,2013-01-05 02:35:00
6:55 PM,42.8,32.0,66,30.20,10.0,SE,3.5,-,N/A,,Clear,130,2013-01-05 02:55:00
7:15 PM,41.0,32.0,70,30.20,10.0,Calm,Calm,-,N/A,,Clear,0,2013-01-05 03:15:00
7:35 PM,41.0,32.0,70,30.21,10.0,Calm,Calm,-,N/A,,Clear,0,2013-01-05 03:35:00
7:55 PM,41.0,32.0,70,30.21,10.0,Calm,Calm,-,N/A,,Clear,0,2013-01-05 03:55:00
8:15 PM,41.0,32.0,70,30.22,10.0,Calm,Calm,-,N/A,,Clear,0,2013-01-05 04:15:00
8:35 PM,41.0,32.0,70,30.22,10.0,Calm,Calm,-,N/A,,Clear,0,2013-01-05 04:35:00
8:55 PM,41.0,32.0,70,30.23,10.0,Calm,Calm,-,N/A,,Clear,0,2013-01-05 04:55:00
9:15 PM,41.0,32.0,70,30.23,10.0,Calm,Calm,-,N/A,,Clear,0,2013-01-05 05:15:00
9:35 PM,42.8,32.0,66,30.23,10.0,Calm,Calm,-,N/A,,Clear,0,2013-01-05 05:35:00
9:55 PM,42.8,32.0,66,30.23,10.0,ESE,5.8,-,N/A,,Clear,110,2013-01-05 05:55:00
10:15 PM,44.6,32.0,61,30.23,10.0,ESE,4.6,-,N/A,,Clear,120,2013-01-05 06:15:00
10:35 PM,44.6,30.2,57,30.23,10.0,East,5.8,-,N/A,,Clear,100,2013-01-05 06:35:00
10:55 PM,44.6,28.4,53,30.24,10.0,ESE,4.6,-,N/A,,Clear,120,2013-01-05 06:55:00
11:15 PM,44.6,28.4,53,30.24,10.0,Calm,Calm,-,N/A,,Clear,0,2013-01-05 07:15:00
11:35 PM,46.4,28.4,50,30.23,10.0,ESE,4.6,-,N/A,,Clear,110,2013-01-05 07:35:00
11:55 PM,44.6,28.4,53,30.23,10.0,ESE,4.6,-,N/A,,Clear,110,2013-01-05 07:55:00